Location: Eexterzandvoort
(53.0303°N, 6.7884°E)
Time: 00:57:34
(UTC+00:00)

SL-16 R/B - Pass Details

Date: 19 May 2025
Orbit: 841 x 844 km, 71.0° (Epoch: 15 June)

Event Time Altitude Azimuth Distance (km) Brightness Sun altitude
Rises 22:39:55 0° 327° (NNW) 3,415 6.7 -16.2°
Reaches altitude 10° 22:42:23 10° 326° (NW) 2,477 5.7 -16.3°
Maximum altitude 22:48:03 73° 243° (WSW) 886 2.2 -16.4°
Enters shadow 22:51:16 27° 164° (SSE) 1,586 3.0 -16.5°
